This demonstration page uses our WeatherBlox Daily Observations layout. Learn more.

Left ArrowRight Arrow

39.01783, -85.05884

Hourly Observations for December 23, 2020

Temp ( °F °C ) Dew Point ( °F °C ) Humidity (%) Winds ( mph kmh ) Pressure ( in mb ) Visibility ( mi km ) Precip ( " mm )
12:52 am 00:52 Partly Cloudy 34 1.1 26 -3.3 73 73 SSE 7 11 30.20 1023 10 16 N/A
1:52 am 01:52 Partly Cloudy 34 1.1 26 -3.3 73 73 SSE 6 9 30.19 1022 10 16 N/A
2:52 am 02:52 Clear 33 0.6 26 -3.3 75 75 S 7 11 30.18 1022 10 16 N/A
3:52 am 03:52 Partly Cloudy 34 1.1 26 -3.3 73 73 SSE 8 13 30.15 1021 10 16 N/A
4:52 am 04:52 Partly Cloudy 34 1.1 26 -3.3 73 73 SSE 8 13 30.12 1020 10 16 N/A
5:52 am 05:52 Mostly Cloudy 34 1.1 26 -3.3 73 73 SSE 12 19 30.09 1019 10 16 N/A
6:52 am 06:52 Mostly Cloudy 35 1.7 26 -3.3 70 70 S 10 17 30.10 1019 10 16 N/A
7:52 am 07:52 Partly Cloudy 34 1.1 25 -3.9 70 70 SSE 9 15 30.09 1019 10 16 N/A
8:52 am 08:52 Mostly Sunny 36 2.2 26 -3.3 67 67 SSE 12 19 30.07 1018 10 16 N/A
9:52 am 09:52 Mostly Sunny 44 6.7 27 -2.8 51 51 S 14 22 30.06 1018 10 16 N/A
10:52 am 10:52 Mostly Sunny 50 10 26 -3.3 39 39 S 17 28 30.02 1017 10 16 N/A
11:52 am 11:52 Mostly Cloudy 55 12.8 26 -3.3 33 33 S 16 26 29.97 1015 10 16 N/A
12:52 pm 12:52 Mostly Cloudy 55 12.8 27 -2.8 34 34 S 15 24 29.93 1014 10 16 N/A
1:52 pm 13:52 Cloudy 55 12.8 28 -2.2 35 35 S 18 30 29.88 1012 10 16 N/A
2:52 pm 14:52 Cloudy 57 13.9 28 -2.2 33 33 SSW 20 31 29.86 1011 10 16 N/A
3:52 pm 15:52 Cloudy 57 13.9 28 -2.2 33 33 SSW 20 31 29.85 1011 10 16 N/A
4:52 pm 16:52 Cloudy 56 13.3 28 -2.2 34 34 S 18 30 29.82 1010 10 16 0.00 0.00
5:52 pm 17:52 Cloudy 55 12.8 29 -1.7 37 37 S 15 24 29.80 1009 10 16 N/A
6:52 pm 18:52 Cloudy 54 12.2 28 -2.2 37 37 S 22 35 29.79 1009 10 16 N/A
7:52 pm 19:52 Cloudy with Light Rain 55 12.8 28 -2.2 35 35 S 21 33 29.78 1008 10 16 0.00 0.00
8:52 pm 20:52 Cloudy with Light Rain 51 10.6 36 2.2 56 56 S 18 30 29.76 1008 8 13 0.01 0.25
9:52 pm 21:52 Cloudy with Light Rain 51 10.6 36 2.2 56 56 S 21 33 29.73 1007 10 16 0.01 0.25
10:52 pm 22:52 Cloudy 51 10.6 36 2.2 56 56 S 24 39 29.70 1006 10 16 0.00 0.00
11:52 pm 23:52 Cloudy with Rain 48 8.9 41 5 77 77 S 21 33 29.72 1006 4 6 0.03 0.76

Powered by AerisWeather